This is the latest recevied weather packets stored in our database for station/object SP1BMW-13. If no packets are shown the sender has not sent any weather packets the latest 1 day(s).
| Time | Temp. | Humidity | Pressure | Rain* | Wind** | Luminosity | Snow |
|---|---|---|---|---|---|---|---|
| 1778024567 | 10.56° C | 92% | 1007.1 hPa | 0 mm | 0.45 m/s, 53° | 0 W/m² | - |
| 1778024507 | 10.56° C | 92% | 1007.2 hPa | 0 mm | 1.79 m/s, 45° | 0 W/m² | - |
| 1778024447 | 10.56° C | 92% | 1007.3 hPa | 0 mm | 0.89 m/s, 1° | 0 W/m² | - |
| 1778024387 | 10.56° C | 92% | 1007.3 hPa | 0 mm | 0.45 m/s, 53° | 0 W/m² | - |
| 1778024327 | 10.56° C | 92% | 1007.2 hPa | 0 mm | 0.89 m/s, 51° | 0 W/m² | - |
| 1778024267 | 10.56° C | 92% | 1007.2 hPa | 0 mm | 0.45 m/s, 8° | 0 W/m² | - |
| 1778024207 | 10.56° C | 92% | 1007.2 hPa | 0 mm | 0 m/s | 0 W/m² | - |
| 1778024147 | 10.56° C | 92% | 1007.3 hPa | 0 mm | 0.89 m/s, 358° | 0 W/m² | - |
| 1778024087 | 10.56° C | 92% | 1007.4 hPa | 0 mm | 1.79 m/s, 344° | 0 W/m² | - |
| 1778024027 | 10.56° C | 92% | 1007.1 hPa | 0 mm | 0.89 m/s, 21° | 0 W/m² | - |
| 1778023967 | 10.56° C | 92% | 1007.2 hPa | 0 mm | 0.45 m/s, 36° | 0 W/m² | - |
| 1778023907 | 10.56° C | 92% | 1007.3 hPa | 0 mm | 0.89 m/s, 39° | 0 W/m² | - |
| 1778023847 | 10.56° C | 92% | 1007.1 hPa | 0 mm | 0 m/s | 0 W/m² | - |
| 1778023787 | 10.56° C | 92% | 1007.4 hPa | 0 mm | 0 m/s | 0 W/m² | - |
| 1778023727 | 10.56° C | 92% | 1007.5 hPa | 0 mm | 0 m/s | 0 W/m² | - |
| 1778023667 | 10.56° C | 92% | 1007.4 hPa | 0 mm | 0.45 m/s, 49° | 0 W/m² | - |
| 1778023607 | 10.56° C | 92% | 1007.4 hPa | 0 mm | 1.34 m/s, 33° | 0 W/m² | - |
| 1778023547 | 10.56° C | 92% | 1007.4 hPa | 0 mm | 0.45 m/s, 39° | 0 W/m² | - |
| 1778023487 | 10.56° C | 92% | 1007.4 hPa | 0 mm | 1.34 m/s, 46° | 0 W/m² | - |
| 1778023427 | 10.56° C | 92% | 1007.3 hPa | 0 mm | 1.34 m/s, 41° | 0 W/m² | - |
| 1778023367 | 10.56° C | 92% | 1007.4 hPa | 0 mm | 1.34 m/s, 57° | 0 W/m² | - |
| 1778023307 | 10.56° C | 92% | 1007.6 hPa | 0 mm | 0.45 m/s, 70° | 0 W/m² | - |
| 1778023247 | 10.56° C | 92% | 1007.3 hPa | 0 mm | 0.89 m/s, 58° | 0 W/m² | - |
| 1778023187 | 10.56° C | 92% | 1007.5 hPa | 0 mm | 1.34 m/s, 25° | 0 W/m² | - |
| 1778023127 | 10.56° C | 92% | 1007.5 hPa | 0 mm | 0.45 m/s, 44° | 0 W/m² | - |
* Rain latest hour (hover to see other rain measurements)
** Current wind speed in m/s (hover to see current wind gust speed)